Chengdu

Airport
ICAO code: 
ZUUU
Summary
ICAO Region: 
APAC
Territory: 
Location: 
Shuangliu County, Chengdu,
Coordinates: 
Aerial View: 
30° 34' 42.603" N, 103° 56' 49.195" E
Metar
Observation
ZUUU 030200Z 24001MPS 2500 BR NSC 10/06 Q1028 BECMG TL0330 3000
Station
Chengdu
Date/Time
2021-12-03 02:00:00
Wind direction
240°
Lowest cloud amount
nil significant cloud
Temperature
10°C
Dew point
6°C
Humidity
76%
QNH
1028 hPa
Weather condition
n/a

Description

Chengdu Shuangliu International Airport is the major airport in Chengdu, China. It is located in the north of Shuangliu County, about 16 km southwest of downtown Chengdu.

Climatology

Warm continental climate/Humid continental climate (Köppen climate classification Dwa)

Runways

Designator Length Width Surface Rops
2/20 3600 60 CON Yes/Yes
Airport map: 
Aerial View: 

SKYbrary Partners:

Safety knowledge contributed by: